KC0KLG Weather Reports


Display with metric or nautical units.
time (UTC)temp
F
wind
direction
speed
MPH
gust
MPH
rain 1hr
in
rain 24hr
in
rain mn
in
humidity
%
barometer
mb
20260505070046 46 37 2.0 11.0 0.00 0.00 0.00 48 1015.4
20260505070021 46 23 2.0 11.0 0.00 0.00 0.00 48 1013.3
20260505064546 47 327 2.0 8.0 0.00 0.00 0.00 48 1015.3
20260505064531 47 360 3.0 8.0 0.00 0.00 0.00 48 1013.2
20260505063056 46 55 3.0 11.0 0.00 0.00 0.00 49 1013.2
20260505063044 46 33 3.0 11.0 0.00 0.00 0.00 49 1015.3
20260505061558 46 11 4.0 12.0 0.00 0.00 0.00 50 1013.2
20260505061551 46 60 4.0 12.0 0.00 0.00 0.00 49 1015.4
20260505060050 46 17 3.0 8.0 0.00 0.00 0.00 50 1013.1
20260505060044 46 20 3.0 9.0 0.00 0.00 0.00 49 1015.4
20260505054611 46 29 3.0 7.0 0.00 0.00 0.00 50 1015.6
20260505054558 46 35 3.0 7.0 0.00 0.00 0.00 51 1013.3
20260505053100 46 71 4.0 11.0 0.00 0.00 0.00 50 1015.3
20260505053032 46 75 4.0 11.0 0.00 0.00 0.00 50 1013.0
20260505051546 46 82 6.0 14.0 0.00 0.00 0.00 50 1015.3
20260505051522 46 61 6.0 14.0 0.00 0.00 0.00 50 1013.0
20260505041601 46 68 3.0 10.0 0.00 0.00 0.00 53 1012.8
20260505041555 46 26 3.0 10.0 0.00 0.00 0.00 52 1015.3
20260505040057 47 350 2.0 12.0 0.00 0.00 0.00 52 1012.7
20260505040046 47 67 1.0 12.0 0.00 0.00 0.00 51 1015.1
20260505034548 47 78 2.0 7.0 0.00 0.00 0.00 52 1012.8
20260505034543 47 40 1.0 7.0 0.00 0.00 0.00 52 1015.2
20260505033047 48 70 3.0 11.0 0.00 0.00 0.00 50 1014.9
20260505033038 47 56 5.0 11.0 0.00 0.00 0.00 51 1012.4
20260505031604 48 352 5.0 13.0 0.00 0.00 0.00 50 1014.8
20260505031542 48 355 5.0 13.0 0.00 0.00 0.00 51 1012.3
20260505030047 49 68 4.0 13.0 0.00 0.00 0.00 50 1014.6
20260505030026 49 14 4.0 13.0 0.00 0.00 0.00 51 1012.2
20260505024545 50 5 5.0 15.0 0.00 0.00 0.00 49 1014.4
20260505024530 50 5 5.0 15.0 0.00 0.00 0.00 49 1012.0
20260505023100 51 360 6.0 13.0 0.00 0.00 0.00 48 1014.3
20260505023012 51 55 6.0 12.0 0.00 0.00 0.00 48 1011.8
20260505021558 52 34 6.0 18.0 0.00 0.00 0.00 47 1011.6
20260505021552 52 24 5.0 18.0 0.00 0.00 0.00 47 1014.2
20260505020049 52 38 7.0 16.0 0.00 0.00 0.00 46 1014.0
20260505014547 53 36 7.0 17.0 0.00 0.00 0.00 44 1013.9
20260505014544 53 360 8.0 17.0 0.00 0.00 0.00 45 1011.6
20260505013104 54 15 3.0 13.0 0.00 0.00 0.00 46 1013.9
20260505013036 54 355 4.0 13.0 0.00 0.00 0.00 47 1011.5
20260505011545 55 41 7.0 15.0 0.00 0.00 0.00 43 1014.0
20260505011533 55 24 7.0 15.0 0.00 0.00 0.00 43 1011.5
20260505010049 56 11 8.0 19.0 0.00 0.00 0.00 43 1013.7
20260505010010 56 11 8.0 19.0 0.00 0.00 0.00 43 1011.3
20260505004556 57 49 3.0 12.0 0.00 0.00 0.00 44 1011.1
20260505004552 57 48 4.0 16.0 0.00 0.00 0.00 44 1013.6
20260505003045 57 36 8.0 18.0 0.00 0.00 0.00 43 1011.2
20260505003043 57 316 7.0 18.0 0.00 0.00 0.00 42 1013.7
20260505001552 57 10 7.0 16.0 0.00 0.00 0.00 42 1013.7
20260505001534 57 19 6.0 16.0 0.00 0.00 0.00 43 1011.0
20260505000106 57 58 7.0 16.0 0.00 0.00 0.00 43 1013.6
20260505000035 57 65 8.0 16.0 0.00 0.00 0.00 43 1011.0
20260504234546 57 352 8.0 16.0 0.00 0.00 0.00 42 1013.6
20260504234519 57 346 8.0 16.0 0.00 0.00 0.00 43 1010.9
20260504233051 58 344 8.0 16.0 0.00 0.00 0.00 42 1013.4
20260504233012 58 348 9.0 16.0 0.00 0.00 0.00 43 1010.7
20260504231557 57 32 6.0 14.0 0.00 0.00 0.00 44 1010.8
20260504231546 57 335 6.0 16.0 0.00 0.00 0.00 44 1013.6
20260504230104 57 63 7.0 16.0 0.00 0.00 0.00 43 1010.6
20260504224549 58 26 5.0 13.0 0.00 0.00 0.00 41 1010.7
20260504224544 58 34 4.0 13.0 0.00 0.00 0.00 41 1013.5
20260504223044 58 30 6.0 12.0 0.00 0.00 0.00 41 1013.4
20260504223042 58 19 7.0 12.0 0.00 0.00 0.00 41 1010.7
20260504221558 59 360 5.0 13.0 0.00 0.00 0.00 41 1013.5
20260504221553 59 20 5.0 13.0 0.00 0.00 0.00 41 1010.5
20260504220046 59 351 5.0 13.0 0.00 0.00 0.00 40 1013.5
20260504220037 59 27 6.0 13.0 0.00 0.00 0.00 41 1010.5
20260504214542 58 28 4.0 11.0 0.00 0.00 0.00 41 1013.5
20260504214529 58 22 5.0 11.0 0.00 0.00 0.00 41 1010.5
20260504213050 59 59 7.0 13.0 0.00 0.00 0.00 40 1013.6
20260504213017 59 55 6.0 13.0 0.00 0.00 0.00 40 1010.5
20260504211548 59 10 4.0 12.0 0.00 0.00 0.00 41 1013.5
20260504211515 59 34 4.0 12.0 0.00 0.00 0.00 41 1010.4
20260504210057 58 30 4.0 15.0 0.00 0.00 0.00 44 1010.4
20260504210048 58 63 5.0 15.0 0.00 0.00 0.00 44 1013.5
20260504204600 58 332 5.0 12.0 0.00 0.00 0.00 41 1013.6
20260504204547 58 9 5.0 12.0 0.00 0.00 0.00 42 1010.4
20260504203101 59 66 4.0 11.0 0.00 0.00 0.00 42 1013.4
20260504203049 59 317 3.0 11.0 0.00 0.00 0.00 42 1010.2
20260504201544 58 5 6.0 13.0 0.00 0.00 0.00 41 1013.6
20260504201539 58 17 7.0 13.0 0.00 0.00 0.00 41 1010.5
20260504200050 59 336 6.0 15.0 0.00 0.00 0.00 41 1013.4
20260504200035 59 355 8.0 13.0 0.00 0.00 0.00 41 1010.2
20260504194549 58 13 4.0 12.0 0.00 0.00 0.00 42 1013.6
20260504194533 58 34 4.0 10.0 0.00 0.00 0.00 43 1010.3
20260504193045 58 329 4.0 18.0 0.00 0.00 0.00 42 1013.6
20260504193030 58 327 4.0 18.0 0.00 0.00 0.00 43 1010.3
20260504191602 58 352 5.0 13.0 0.00 0.00 0.00 43 1013.6
20260504191529 58 15 6.0 13.0 0.00 0.00 0.00 43 1010.3
20260504190058 59 329 7.0 14.0 0.00 0.00 0.00 41 1013.7
20260504190020 59 5 7.0 14.0 0.00 0.00 0.00 41 1010.2
20260504184547 58 25 3.0 15.0 0.00 0.00 0.00 42 1013.8
20260504184514 58 17 4.0 15.0 0.00 0.00 0.00 41 1010.4
20260504183047 57 13 5.0 13.0 0.00 0.00 0.00 42 1013.9
20260504183003 58 97 6.0 13.0 0.00 0.00 0.00 42 1010.4
20260504181600 57 28 5.0 27.0 0.00 0.00 0.00 42 1010.5
20260504181545 57 22 6.0 27.0 0.00 0.00 0.00 41 1014.0
20260504180047 57 341 4.0 12.0 0.00 0.00 0.00 43 1010.5
20260504180042 57 352 5.0 12.0 0.00 0.00 0.00 42 1013.9
20260504174544 56 63 3.0 16.0 0.00 0.00 0.00 43 1014.1
20260504174537 56 42 4.0 16.0 0.00 0.00 0.00 43 1010.7
20260504173047 56 340 1.0 14.0 0.00 0.00 0.00 44 1014.1
20260504173030 56 340 1.0 14.0 0.00 0.00 0.00 44 1010.6
20260504171547 56 109 3.0 12.0 0.00 0.00 0.00 44 1014.2
20260504171519 56 23 3.0 12.0 0.00 0.00 0.00 44 1010.7
20260504100104 50 76 4.0 10.0 0.00 0.00 0.00 48 1009.6
20260504081549 56 23 6.0 15.0 0.00 0.00 0.00 42 1011.6
20260504081522 56 11 5.0 14.0 0.00 0.00 0.00 42 1009.0